Weather reports worldwide

Advertisment
Ciudad Victoria, Mexico (76491): temperature & dewpoint: 17.04.2018 08:00:00 - 23.04.2018 08:00:00 (CDT)Ciudad Victoria, Mexico (76491): wind speed: 17.04.2018 08:00:00 - 23.04.2018 08:00:00 (CDT)Ciudad Victoria, Mexico (76491): wind direction: 17.04.2018 08:00:00 - 23.04.2018 08:00:00 (CDT)Ciudad Victoria, Mexico (76491): reduced air pressure: 17.04.2018 08:00:00 - 23.04.2018 08:00:00 (CDT)Ciudad Victoria, Mexico (76491): visibility: 17.04.2018 08:00:00 - 23.04.2018 08:00:00 (CDT)
Date & Time tt [°C] td [°C] ff [km/h] ff [kn] dd ppp [hPa] vv [km]
23.04.2018 08:00:00 - - - - - - -
23.04.2018 07:00:00 21,6 21,5 4 2 N 1016,9 6
23.04.2018 06:00:00 - - - - - - -
23.04.2018 05:00:00 - - - - - - -
23.04.2018 04:00:00 - - - - - - -
23.04.2018 03:00:00 - - - - - - -
23.04.2018 02:00:00 - - - - - - -
23.04.2018 01:00:00 22,0 21,9 7 4 SE 1018,7 6
23.04.2018 00:00:00 - - - - - - -
22.04.2018 23:00:00 - - - - - - -
22.04.2018 22:00:00 22,6 22,5 14 8 N 1016,4 6
22.04.2018 21:00:00 - - - - - - -
22.04.2018 20:00:00 - - - - - - -
22.04.2018 19:00:00 26,4 23,5 22 12 N 1013,8 10
22.04.2018 18:00:00 - - - - - - -
22.04.2018 17:00:00 - - - - - - -
22.04.2018 16:00:00 31,8 20,6 18 10 N 1014,4 10
22.04.2018 15:00:00 - - - - - - -
22.04.2018 14:00:00 - - - - - - -
22.04.2018 13:00:00 31,6 18,7 18 10 N 1016,2 10
22.04.2018 12:00:00 - - - - - - -
22.04.2018 11:00:00 - - - - - - -
22.04.2018 10:00:00 26,6 22,7 14 8 N 1016,3 10
22.04.2018 09:00:00 - - - - - - -
22.04.2018 08:00:00 - - - - - - -
22.04.2018 07:00:00 - - - - - - -
22.04.2018 06:00:00 - - - - - - -
22.04.2018 05:00:00 - - - - - - -
22.04.2018 04:00:00 - - - - - - -
22.04.2018 03:00:00 - - - - - - -
22.04.2018 02:00:00 - - - - - - -
22.04.2018 01:00:00 - - - - - - -
22.04.2018 00:00:00 - - - - - - -
21.04.2018 23:00:00 - - - - - - -
21.04.2018 22:00:00 - - - - - - -
21.04.2018 21:00:00 - - - - - - -
21.04.2018 20:00:00 - - - - - - -
21.04.2018 19:00:00 34,6 18,3 4 2 N 1008,8 10
21.04.2018 18:00:00 - - - - - - -
21.04.2018 17:00:00 - - - - - - -
21.04.2018 16:00:00 35,0 18,7 11 6 N 1009,8 10
21.04.2018 15:00:00 - - - - - - -
21.04.2018 14:00:00 - - - - - - -
21.04.2018 13:00:00 33,8 17,5 7 4 N 1011,0 10
21.04.2018 12:00:00 - - - - - - -
21.04.2018 11:00:00 - - - - - - -
21.04.2018 10:00:00 25,2 20,7 4 2 N 1012,6 10
21.04.2018 09:00:00 - - - - - - -
21.04.2018 08:00:00 - - - - - - -
21.04.2018 07:00:00 19,0 18,7 0 0 N 1012,0 6
21.04.2018 06:00:00 - - - - - - -
21.04.2018 05:00:00 - - - - - - -
21.04.2018 04:00:00 23,0 19,8 4 2 WSW 1011,6 6
21.04.2018 03:00:00 - - - - - - -
21.04.2018 02:00:00 - - - - - - -
21.04.2018 01:00:00 22,2 21,2 4 2 W 1014,3 6
21.04.2018 00:00:00 - - - - - - -
20.04.2018 23:00:00 - - - - - - -
20.04.2018 22:00:00 25,0 20,9 7 4 N 1014,2 6
20.04.2018 21:00:00 - - - - - - -
20.04.2018 20:00:00 - - - - - - -
20.04.2018 19:00:00 32,0 15,3 18 10 ESE 1012,7 10
20.04.2018 18:00:00 - - - - - - -
20.04.2018 17:00:00 - - - - - - -
20.04.2018 16:00:00 33,4 15,8 25 14 E 1014,0 10
20.04.2018 15:00:00 - - - - - - -
20.04.2018 14:00:00 - - - - - - -
20.04.2018 13:00:00 31,0 15,8 18 10 ESE 1018,3 10
20.04.2018 12:00:00 - - - - - - -
20.04.2018 11:00:00 - - - - - - -
20.04.2018 10:00:00 22,4 21,4 7 4 N 1021,4 10
20.04.2018 09:00:00 - - - - - - -
20.04.2018 08:00:00 - - - - - - -
20.04.2018 07:00:00 18,0 17,9 0 0 N 1019,9 6
20.04.2018 06:00:00 - - - - - - -
20.04.2018 05:00:00 - - - - - - -
20.04.2018 04:00:00 20,0 19,9 0 0 N 1019,6 6
20.04.2018 03:00:00 - - - - - - -
20.04.2018 02:00:00 - - - - - - -
20.04.2018 01:00:00 22,4 22,3 4 2 E 1021,8 6
20.04.2018 00:00:00 - - - - - - -
19.04.2018 23:00:00 - - - - - - -
19.04.2018 22:00:00 24,8 21,9 14 8 E 1021,1 6
19.04.2018 21:00:00 - - - - - - -
19.04.2018 20:00:00 - - - - - - -
19.04.2018 19:00:00 29,4 20,4 14 8 N 1019,3 10
19.04.2018 18:00:00 - - - - - - -
19.04.2018 17:00:00 - - - - - - -
19.04.2018 16:00:00 29,0 21,8 7 4 N 1021,0 10
19.04.2018 15:00:00 - - - - - - -
19.04.2018 14:00:00 - - - - - - -
19.04.2018 13:00:00 27,8 22,3 7 4 N 1022,8 10
19.04.2018 12:00:00 - - - - - - -
19.04.2018 11:00:00 - - - - - - -
19.04.2018 10:00:00 23,0 22,9 7 4 N 1022,0 10
19.04.2018 09:00:00 - - - - - - -
19.04.2018 08:00:00 - - - - - - -
19.04.2018 07:00:00 22,4 22,3 4 2 W 1019,5 6
19.04.2018 06:00:00 - - - - - - -
19.04.2018 05:00:00 - - - - - - -
19.04.2018 04:00:00 23,0 22,9 7 4 N 1018,1 6
19.04.2018 03:00:00 - - - - - - -
19.04.2018 02:00:00 - - - - - - -
19.04.2018 01:00:00 23,8 23,5 7 4 N 1018,0 6
19.04.2018 00:00:00 - - - - - - -
18.04.2018 23:00:00 - - - - - - -
18.04.2018 22:00:00 29,4 20,9 11 6 N 1014,1 6
18.04.2018 21:00:00 - - - - - - -
18.04.2018 20:00:00 - - - - - - -
18.04.2018 19:00:00 34,2 18,5 11 6 N 1011,6 10
18.04.2018 18:00:00 - - - - - - -
18.04.2018 17:00:00 - - - - - - -
18.04.2018 16:00:00 34,6 18,9 11 6 N 1012,0 10
18.04.2018 15:00:00 - - - - - - -
18.04.2018 14:00:00 - - - - - - -
18.04.2018 13:00:00 29,6 19,8 4 2 N 1013,5 10
18.04.2018 12:00:00 - - - - - - -
18.04.2018 11:00:00 - - - - - - -
18.04.2018 10:00:00 23,0 20,6 4 2 N 1012,9 10
18.04.2018 09:00:00 - - - - - - -
18.04.2018 08:00:00 - - - - - - -
18.04.2018 07:00:00 18,2 18,2 0 0 N 1012,4 6
18.04.2018 06:00:00 - - - - - - -
18.04.2018 05:00:00 - - - - - - -
18.04.2018 04:00:00 19,2 19,1 0 0 N 1011,7 6
18.04.2018 03:00:00 - - - - - - -
18.04.2018 02:00:00 - - - - - - -
18.04.2018 01:00:00 22,8 18,4 0 0 N 1011,9 6
18.04.2018 00:00:00 - - - - - - -
17.04.2018 23:00:00 - - - - - - -
17.04.2018 22:00:00 28,4 17,6 4 2 E 1009,7 6
17.04.2018 21:00:00 - - - - - - -
17.04.2018 20:00:00 - - - - - - -
17.04.2018 19:00:00 34,4 17,4 18 10 E 1008,5 10
17.04.2018 18:00:00 - - - - - - -
17.04.2018 17:00:00 - - - - - - -
17.04.2018 16:00:00 36,0 17,6 7 4 E 1010,6 10
17.04.2018 15:00:00 - - - - - - -
17.04.2018 14:00:00 - - - - - - -
17.04.2018 13:00:00 29,8 16,1 4 2 N 1015,0 10
17.04.2018 12:00:00 - - - - - - -
17.04.2018 11:00:00 - - - - - - -
17.04.2018 10:00:00 21,8 17,8 4 2 N 1017,4 -
17.04.2018 09:00:00 - - - - - - -
17.04.2018 08:00:00 - - - - - - -

tt = temperature
td = dewpoint
ff = wind speed
dd = wind direction
ppp = reduced air pressure
vv = visibility

Next stations